TimeAKDT,TemperatureF,Dew PointF,Humidity,Sea Level PressureIn,VisibilityMPH,Wind Direction,Wind SpeedMPH,Gust SpeedMPH,PrecipitationIn,Events,Conditions,WindDirDegrees,DateUTC
12:00 AM,18.0,16.0,92,29.43,0.5,West,6.9,-,0.00,Fog-Snow,Snow,270,2013-04-10 08:00:00
12:28 AM,18.0,17.1,96,29.44,0.8,West,6.9,-,0.02,Snow,Light Snow,260,2013-04-10 08:28:00
12:53 AM,18.0,17.1,96,29.46,0.8,West,6.9,-,0.03,Snow,Light Snow,260,2013-04-10 08:53:00
1:00 AM,18.0,17.1,96,29.46,1.0,West,8.1,-,0.00,Snow,Light Snow,280,2013-04-10 09:00:00
1:16 AM,18.0,17.1,96,29.46,0.8,West,8.1,-,0.01,Snow,Light Snow,280,2013-04-10 09:16:00
1:32 AM,18.0,17.1,96,29.47,0.5,West,11.5,-,0.02,Fog-Snow,Snow,280,2013-04-10 09:32:00
1:53 AM,18.0,17.1,96,29.49,1.0,WNW,13.8,19.6,0.03,Snow,Light Snow,290,2013-04-10 09:53:00
2:18 AM,18.0,16.0,92,29.50,1.2,West,10.4,18.4,0.00,Snow,Light Snow,280,2013-04-10 10:18:00
2:34 AM,18.0,16.0,92,29.51,0.5,WNW,10.4,18.4,0.01,Fog-Snow,Snow,290,2013-04-10 10:34:00
2:53 AM,18.0,15.1,88,29.53,0.5,WNW,10.4,18.4,0.02,Fog-Snow,Snow,290,2013-04-10 10:53:00
3:43 AM,17.1,15.1,92,29.54,0.2,West,8.1,18.4,0.03,Fog-Snow,Heavy Snow,280,2013-04-10 11:43:00
3:53 AM,17.1,15.1,92,29.55,0.5,West,9.2,-,0.04,Fog-Snow,Snow,270,2013-04-10 11:53:00
4:33 AM,17.1,15.1,92,29.56,0.8,West,9.2,-,0.02,Snow,Light Snow,280,2013-04-10 12:33:00
4:40 AM,17.1,15.1,92,29.57,1.0,West,10.4,-,0.03,Snow,Light Snow,270,2013-04-10 12:40:00
4:53 AM,17.1,15.1,92,29.58,1.2,WNW,10.4,-,0.03,Snow,Light Snow,290,2013-04-10 12:53:00
5:47 AM,17.6,12.2,79,29.60,3.0,WNW,8.1,18.4,0.00,Snow,Light Snow,290,2013-04-10 13:47:00
5:48 AM,17.1,12.9,84,29.60,3.0,WNW,8.1,18.4,0.00,Snow,Light Snow,290,2013-04-10 13:48:00
6:53 AM,16.0,10.0,77,29.63,8.0,WNW,9.2,-,0.00,,Overcast,290,2013-04-10 14:53:00
7:53 AM,16.0,10.0,77,29.66,10.0,West,8.1,-,N/A,,Overcast,270,2013-04-10 15:53:00
8:53 AM,16.0,10.0,77,29.68,9.0,West,8.1,-,N/A,,Overcast,270,2013-04-10 16:53:00
9:17 AM,17.1,9.0,71,29.68,10.0,West,10.4,-,N/A,,Overcast,280,2013-04-10 17:17:00
10:53 AM,18.0,10.0,71,29.72,6.0,West,6.9,-,N/A,,Haze,270,2013-04-10 18:53:00
11:53 AM,18.0,9.0,68,29.75,9.0,West,10.4,-,N/A,,Overcast,270,2013-04-10 19:53:00
12:50 PM,17.6,12.2,79,29.76,2.5,West,9.2,-,0.00,Snow,Light Snow,270,2013-04-10 20:50:00
12:53 PM,18.0,12.0,78,29.76,2.0,West,6.9,-,0.00,Snow,Light Snow,280,2013-04-10 20:53:00
1:03 PM,18.0,10.9,74,29.76,1.5,West,9.2,-,0.00,Snow,Light Snow,270,2013-04-10 21:03:00
1:15 PM,18.0,12.0,78,29.77,3.0,West,8.1,-,0.00,Snow,Light Snow,280,2013-04-10 21:15:00
1:33 PM,19.0,12.0,74,29.77,1.8,West,6.9,-,0.00,Snow,Light Snow,270,2013-04-10 21:33:00
1:53 PM,18.0,12.0,78,29.79,1.8,West,8.1,-,0.00,Snow,Light Snow,260,2013-04-10 21:53:00
2:00 PM,18.0,12.0,78,29.79,3.0,West,9.2,-,0.00,Snow,Light Snow,280,2013-04-10 22:00:00
2:09 PM,18.0,12.9,81,29.79,1.8,West,6.9,-,0.00,Snow,Light Snow,280,2013-04-10 22:09:00
2:36 PM,18.0,12.0,78,29.80,3.0,West,10.4,-,0.00,Snow,Light Snow,260,2013-04-10 22:36:00
2:50 PM,19.4,12.2,74,29.80,9.0,West,10.4,-,0.00,,Overcast,280,2013-04-10 22:50:00
2:53 PM,19.9,12.0,71,29.81,10.0,West,8.1,-,0.00,,Overcast,260,2013-04-10 22:53:00
3:53 PM,21.0,10.9,65,29.82,10.0,West,10.4,-,N/A,,Overcast,270,2013-04-10 23:53:00
4:15 PM,19.9,12.0,71,29.82,2.5,WNW,9.2,-,0.00,Snow,Light Snow,290,2013-04-11 00:15:00
4:42 PM,19.0,12.9,77,29.83,1.2,West,8.1,-,0.00,Snow,Light Snow,260,2013-04-11 00:42:00
4:49 PM,19.4,12.2,74,29.83,3.0,West,9.2,-,0.00,Snow,Light Snow,270,2013-04-11 00:49:00
4:53 PM,19.0,10.9,71,29.83,8.0,West,10.4,-,0.00,,Overcast,270,2013-04-11 00:53:00
5:23 PM,19.9,9.0,62,29.83,9.0,West,8.1,-,0.00,,Overcast,260,2013-04-11 01:23:00
5:53 PM,19.9,8.1,60,29.84,10.0,WSW,10.4,-,0.00,,Overcast,250,2013-04-11 01:53:00
6:53 PM,19.0,7.0,59,29.86,10.0,WSW,5.8,-,N/A,,Overcast,250,2013-04-11 02:53:00
7:53 PM,17.1,5.0,59,29.86,10.0,West,5.8,-,N/A,,Partly Cloudy,260,2013-04-11 03:53:00
8:53 PM,15.1,6.1,68,29.88,10.0,West,8.1,-,N/A,,Partly Cloudy,280,2013-04-11 04:53:00
9:53 PM,14.0,6.1,71,29.91,10.0,West,6.9,-,N/A,,Mostly Cloudy,280,2013-04-11 05:53:00
10:23 PM,12.0,6.1,77,29.91,10.0,West,6.9,-,N/A,,Mostly Cloudy,270,2013-04-11 06:23:00
10:36 PM,12.0,7.0,80,29.91,10.0,West,6.9,-,N/A,,Scattered Clouds,280,2013-04-11 06:36:00
10:53 PM,12.0,7.0,80,29.93,10.0,WNW,6.9,-,N/A,,Scattered Clouds,290,2013-04-11 06:53:00
11:53 PM,9.0,3.9,80,29.95,10.0,WNW,5.8,-,N/A,,Mostly Cloudy,290,2013-04-11 07:53:00